Theta_e
327 327 327 327 327 328 328 327 327 327 327 327 326 326 326 326 326 326 326 327 327 327 327 327 326 326 325 325 325 324 324 324 323 323 322 322 321 321 321 322 322 322
327 327 326 327 327 327 327 328 328 327 327 327 327 327 327 327 327 327 326 326 326 326 327 326 326 325 325 324 324 324 323 323 323 324 323 322 322 322 322 323 323 323
327 326 326 326 326 327 327 328 328 328 327 327 328 328 328 328 327 327 327 326 326 325 325 325 325 325 324 324 324 324 323 323 322 323 323 323 324 322 323 323 323 323
327 327 326 326 327 327 328 327 328 328 328 327 327 327 328 329 328 327 327 322 326 325 325 325 324 325 325 324 324 324 324 323 324 324 324 324 324 324 323 323 322 322
327 327 327 327 327 327 328 327 327 327 327 327 327 327 326 327 327 327 326 326 326 326 325 324 324 324 325 325 325 324 324 324 324 325 324 324 324 324 324 324 323 323
327 327 327 327 327 327 326 326 326 327 326 326 326 327 326 327 326 326 326 326 326 325 325 325 324 325 325 325 325 324 324 323 324 324 324 324 324 325 324 324 323 322
326 327 327 327 327 327 326 326 326 325 326 326 326 326 326 326 325 325 325 325 325 324 324 324 324 324 325 325 324 324 324 324 324 324 323 323 323 323 323 323 322 321
326 327 327 327 326 326 325 325 326 325 326 326 325 326 326 325 325 325 325 325 325 324 323 324 324 324 324 324 323 323 323 324 324 322 321 321 322 321 322 322 322 321
326 326 326 326 325 325 324 324 325 325 326 325 325 326 326 325 325 325 325 325 324 323 323 323 323 323 324 323 322 322 321 322 324 322 321 320 319 320 322 322 320 319
324 325 325 324 323 324 323 324 324 325 325 325 325 325 324 324 325 325 324 323 323 322 322 321 322 322 322 321 322 322 321 321 321 321 321 320 320 319 318 316 316 315
322 323 322 322 322 323 323 324 324 325 325 324 324 324 324 322 321 323 323 322 321 321 320 320 320 320 321 320 320 321 321 321 320 320 320 320 320 320 310 316 315 315
320 320 320 320 321 322 323 324 324 324 324 322 322 322 322 320 319 319 319 319 319 320 320 319 319 319 319 319 319 319 319 320 320 318 318 320 320 319 319 317 316 316
317 318 318 319 320 321 322 323 323 322 321 319 318 319 319 316 316 316 316 317 318 319 318 318 318 318 318 318 319 319 317 317 317 317 316 316 316 317 317 317 316 315
315 316 317 317 318 318 318 318 319 319 318 318 315 314 316 315 314 314 314 314 316 316 317 317 317 316 317 317 318 318 317 316 315 314 314 313 312 312 312 313 313 314
314 314 315 314 313 313 313 313 314 314 314 313 312 312 313 314 314 313 312 311 311 312 313 314 314 315 316 316 316 316 316 315 314 313 313 313 313 311 310 310 311 312
312 312 312 312 310 309 310 310 310 310 310 309 309 309 310 309 310 310 311 310 309 309 310 311 311 313 305 303 304 313 313 313 312 312 312 313 311 309 307 307 308 308
308 308 308 308 308 307 307 307 307 307 307 307 307 305 306 306 307 308 308 309 309 308 308 308 309 309 301 301 302 303 310 311 311 310 310 310 309 310 308 303 300 299
304 305 305 306 305 304 305 305 304 303 304 304 303 301 301 301 303 307 308 308 308 308 307 307 308 301 301 300 300 301 301 309 311 310 308 307 307 308 309 306 302 300
302 303 303 304 304 303 303 301 300 300 300 300 301 302 299 299 303 304 305 305 306 306 306 306 306 301 299 299 299 299 299 303 310 309 308 306 305 304 304 303 301 299
301 301 301 302 303 302 300 299 298 298 300 300 299 298 299 300 299 300 302 302 303 305 306 306 305 300 298 298 298 298 299 301 310 310 310 308 304 302 301 299 299 298
301 301 301 301 301 299 298 298 298 299 298 298 298 298 299 299 299 299 300 300 301 302 303 304 305 298 297 297 298 298 299 299 307 306 306 304 305 303 302 301 300 299
301 300 300 300 300 298 296 296 296 297 297 296 296 297 297 298 298 299 299 299 300 300 301 302 304 297 296 296 297 297 297 299 303 303 302 300 299 299 300 301 301 302
300 300 300 299 298 296 295 295 294 295 295 296 295 295 296 296 298 298 299 299 298 298 300 302 302 297 295 295 296 296 297 299 301 300 300 299 299 298 298 299 301 300
300 300 299 298 297 295 295 295 295 296 295 295 295 295 295 296 297 297 297 297 297 298 299 299 300 295 293 295 295 295 296 301 300 298 298 298 299 298 298 297 297 291
300 299 298 297 296 296 296 295 295 294 293 295 295 296 296 297 294 297 295 295 295 296 291 296 297 294 292 294 294 295 294 300 299 296 296 297 296 295 295 295 295 290
299 297 298 297 296 296 296 296 293 294 293 293 294 295 295 295 294 294 293 293 293 292 293 294 295 295 292 292 294 294 295 297 296 295 294 295 296 296 293 293 294 294
Wind_Speed
15 13 14 13 13 12 12 12 11 12 12 11 11 11 11 11 11 14 15 15 15 15 14 14 14 13 13 13 13 13 12 13 12 11 12 11 11 13 13 14 15 14
17 15 13 12 11 11 12 12 12 12 12 12 11 10 9 10 11 12 14 15 15 15 14 14 14 14 14 13 13 13 11 11 12 9 11 13 12 13 15 15 15 13
16 16 16 16 14 14 14 12 12 11 11 11 11 10 9 9 10 11 11 14 14 14 15 14 14 14 14 13 12 12 11 12 12 10 11 13 12 12 11 13 11 10
16 16 15 15 14 13 12 12 11 10 10 10 11 11 9 8 10 12 13 14 14 14 14 14 14 14 14 13 12 11 12 13 12 11 11 10 11 12 12 11 12 12
16 15 14 13 13 13 11 12 12 11 11 12 10 10 10 10 11 11 13 14 14 14 13 14 14 13 13 12 12 11 12 12 12 12 12 13 12 11 12 11 11 12
12 13 13 13 12 12 12 12 12 11 12 12 12 10 11 12 11 12 14 15 14 14 14 13 13 12 12 12 12 13 11 10 10 12 12 11 11 10 9 10 11 11
13 13 14 12 12 12 12 12 11 11 16 14 10 13 11 12 12 13 14 15 15 14 14 14 14 13 12 13 12 11 10 11 11 12 13 12 10 10 10 10 10 10
13 12 12 11 13 16 17 15 13 13 16 13 15 16 11 12 15 15 14 16 15 15 15 15 15 14 13 10 10 12 12 10 10 10 11 11 10 11 10 9 10 10
11 11 13 13 15 15 16 16 15 16 15 16 16 15 12 13 16 16 16 15 15 14 15 15 15 13 11 10 11 11 11 11 11 11 11 10 10 11 10 10 10 10
12 10 11 14 16 15 16 17 16 15 15 16 16 15 13 14 15 15 14 15 15 14 13 12 12 11 10 10 12 11 10 11 10 10 10 11 11 10 9 8 9 9
11 12 14 16 16 15 17 17 17 15 14 15 15 14 14 13 10 12 14 14 13 14 13 11 11 11 12 11 10 10 11 10 10 10 11 11 10 10 9 10 9 10
12 14 15 16 16 17 17 17 16 16 14 9 12 14 12 9 11 9 9 9 11 12 12 11 10 10 11 11 11 10 10 10 10 9 10 11 10 11 10 9 9 9
13 15 14 15 16 16 15 15 14 14 11 10 9 10 9 8 9 9 9 10 11 11 10 11 11 11 11 11 11 11 10 10 10 10 9 8 9 9 10 10 10 9
11 10 11 14 13 11 10 9 10 9 9 9 8 10 11 11 10 11 10 10 11 10 11 10 10 11 11 11 11 11 10 10 9 9 9 8 8 8 8 8 9 9
9 8 9 11 9 8 9 9 8 8 8 8 9 11 10 10 10 10 10 10 10 10 10 10 11 12 11 11 11 11 10 11 10 10 10 10 9 8 7 8 8 8
8 7 9 11 9 10 11 10 9 9 9 9 10 10 9 8 8 9 10 11 11 10 10 10 11 10 12 16 14 11 10 9 9 10 10 10 10 9 8 8 8 8
7 8 7 10 12 10 9 10 10 9 9 10 9 8 9 9 9 10 11 11 11 11 11 11 11 11 15 15 17 17 13 11 10 9 9 9 10 11 11 9 7 6
8 7 8 9 10 11 12 10 8 8 9 10 9 9 10 7 10 12 11 10 10 10 12 12 12 13 16 17 17 18 16 11 10 10 10 9 9 10 10 9 9 8
7 7 8 8 9 11 10 8 9 9 10 10 12 11 7 10 12 11 11 10 11 12 13 13 12 15 18 18 18 18 18 13 9 9 10 10 9 9 8 8 8 8
7 8 9 10 7 6 7 8 9 12 11 9 8 7 10 11 10 12 11 11 13 13 13 11 12 14 18 17 17 18 18 15 9 10 10 10 10 9 9 9 9 9
8 8 9 7 5 6 7 9 11 11 10 10 9 11 11 13 12 12 12 12 12 12 11 12 13 14 16 18 17 17 16 12 10 10 10 9 10 10 11 10 9 9
9 8 7 6 5 6 8 11 12 13 12 9 8 9 9 8 9 10 12 13 13 12 12 13 11 14 16 17 16 15 15 10 10 10 9 8 8 9 9 9 9 10
9 8 7 7 7 8 10 12 12 12 11 8 10 10 10 11 12 12 11 10 11 11 12 13 10 12 16 16 15 15 11 10 10 8 8 10 11 9 8 9 9 9
8 9 9 9 9 12 13 12 11 9 11 9 11 11 12 13 10 8 9 9 11 12 13 12 10 9 14 14 15 16 14 11 9 9 10 10 10 10 9 10 10 13
7 8 10 12 12 12 11 11 11 10 6 7 9 9 10 7 6 9 9 8 10 11 9 11 10 8 12 15 16 16 13 11 9 7 9 12 11 10 8 8 9 9
7 10 10 11 14 12 8 8 3 5 6 7 8 7 8 8 8 8 9 9 7 8 9 10 10 9 10 15 16 17 17 12 7 9 13 13 11 10 8 9 9 9
Wind_Direction
208 210 212 211 216 215 212 210 208 204 205 204 204 204 204 207 203 207 212 219 221 222 220 220 219 218 220 220 220 222 224 222 221 219 216 215 221 225 228 227 229 231
206 208 209 211 214 213 214 211 208 205 206 204 207 207 203 197 196 200 211 218 218 220 218 218 218 218 217 218 217 217 219 219 221 214 219 218 227 226 231 232 232 228
204 205 207 208 211 211 211 211 210 207 208 209 207 208 204 194 192 197 208 217 215 216 217 217 218 218 218 217 213 214 216 218 222 218 216 221 222 225 225 228 231 224
206 207 208 211 213 215 211 209 208 210 208 210 207 205 203 189 195 199 212 216 216 215 215 216 217 217 216 214 212 217 220 222 221 220 221 221 224 226 227 227 228 227
205 207 210 211 212 213 212 209 210 208 209 212 211 205 203 200 200 204 214 215 215 215 214 214 214 215 214 214 213 219 219 220 217 217 223 224 223 223 228 226 229 231
209 209 209 210 210 207 210 211 210 208 213 212 212 205 208 205 205 205 209 218 216 216 215 214 212 213 213 215 214 219 217 216 215 217 226 226 222 219 223 224 226 226
211 207 210 208 208 212 217 216 213 215 227 223 212 221 204 203 207 210 210 220 217 215 214 214 214 214 213 214 215 215 216 214 211 212 220 227 222 219 212 215 217 221
212 211 212 211 218 225 225 224 217 217 223 216 219 222 201 204 215 221 215 218 217 216 214 214 215 215 213 209 212 215 216 213 212 213 217 220 216 221 214 215 224 227
210 210 211 208 218 222 221 220 221 221 221 220 222 223 210 214 218 216 214 214 216 214 212 213 214 213 208 206 211 211 213 216 216 214 217 220 220 220 217 216 222 225
209 206 205 215 219 220 221 220 220 220 220 220 222 224 217 213 213 212 211 211 213 212 209 207 209 208 204 205 210 210 214 215 215 218 219 217 219 219 216 214 220 226
211 214 217 215 218 219 220 220 219 219 218 216 218 218 215 208 204 208 212 211 209 208 208 206 206 205 207 210 211 213 216 217 216 216 219 221 219 218 212 212 215 218
212 214 214 216 216 221 222 221 221 222 219 207 210 215 211 204 205 203 204 206 208 212 212 209 205 205 210 211 211 213 217 217 217 218 220 219 218 220 215 212 213 216
208 214 213 216 218 221 224 225 223 220 216 208 204 213 209 206 204 206 207 210 213 212 209 206 207 207 212 212 212 212 213 215 216 215 218 219 219 215 213 212 211 213
209 208 212 219 220 219 218 220 220 217 214 210 202 208 213 208 205 203 206 209 213 210 212 207 207 210 211 212 211 211 209 214 214 213 215 217 218 215 213 213 209 207
206 204 215 222 216 219 216 217 215 214 210 207 203 211 212 210 204 201 202 207 213 211 209 206 210 212 209 207 208 209 209 211 211 213 213 211 215 215 213 212 213 215
207 204 212 221 216 216 218 213 213 212 208 209 212 210 209 204 201 201 204 207 207 210 211 209 214 217 210 204 203 205 205 208 206 210 212 212 209 212 215 214 219 213
208 213 204 215 222 219 217 211 206 208 210 213 213 206 206 203 197 203 209 208 207 207 210 214 217 217 209 203 206 204 200 200 204 208 204 211 214 212 207 208 216 218
213 208 207 216 219 220 218 214 210 208 212 211 210 206 208 194 205 211 210 208 209 210 213 216 219 214 205 206 204 203 203 203 201 204 203 208 209 215 215 206 200 207
214 211 216 216 216 221 215 205 206 211 214 211 213 209 190 202 213 209 212 210 207 211 217 216 221 209 205 204 204 202 199 196 198 201 198 205 206 209 209 205 200 203
221 218 220 221 207 201 210 200 187 213 215 215 211 194 203 211 212 212 212 209 210 212 217 217 219 209 202 202 202 200 198 196 209 208 210 207 206 203 203 202 200 194
224 223 229 227 198 194 212 217 219 223 220 214 207 206 207 211 210 212 214 213 213 214 216 219 222 203 198 200 202 201 201 192 207 210 214 215 211 204 201 197 195 196
214 221 226 224 206 200 215 222 222 222 222 213 209 215 218 218 223 217 216 214 212 210 214 223 222 197 198 200 198 197 189 192 204 203 205 206 209 209 208 205 203 203
205 208 210 205 201 205 216 221 220 221 223 210 214 215 212 214 219 216 218 216 214 211 215 224 223 199 198 199 195 190 181 199 203 206 209 212 218 210 206 207 210 206
196 200 202 199 197 210 216 220 220 219 218 201 212 213 218 219 217 224 223 222 216 217 215 221 224 200 196 201 198 192 191 199 202 206 216 218 225 214 212 212 213 202
193 197 204 201 210 216 212 219 216 217 214 196 216 221 230 223 216 220 224 221 221 222 217 222 227 210 199 206 206 203 201 208 206 214 220 225 207 201 201 206 207 201
204 212 210 208 217 224 219 221 208 208 202 202 212 212 222 217 216 218 221 225 217 219 219 220 225 223 203 208 209 210 205 205 208 207 217 215 207 204 197 204 201 200